Flag for Canada Weather past 2 weeks in Burlington, Ontario, Canada

Now
54 °F

Cool.


Feels Like: 50 °F
Forecast: 49 / 57 °F
Wind: 13 mph from Northwest

Location: Burlington Piers

Current Time: Sep 22, 2014 at 12:30:27 AM

Latest Report: Sep 22, 2014 at 12:00 AM


Visibility: N/A

Pressure: 29.80 "Hg

Humidity: 72%

Dew point: 45 °F

Location of BurlingtonLocation

Historic Weather in Burlington — Graph

°F

Burlington temperature yesterday

Maximum temperature yesterday: 73 °F (at 1:00 PM)
Minimum temperature yesterday: 55 °F (at 11:00 PM)
Average temperature yesterday: 67 °F

Past Weeks' High & Low Weather Summary

 TemperatureHumidityPressure
High76 °F (Sep 20, 5:00 PM)92% (Sep 10, 2:00 AM)30.33 "Hg (Sep 10, 2:00 AM)
Low46 °F (Sep 19, 5:00 AM)34% (Sep 7, 9:00 PM)29.53 "Hg (Sep 11, 4:00 AM)
Average61 °F70%30.05 "Hg
* Reported Sep 6 11:00 PM — Sep 21 11:00 PM, Burlington, Weather by CustomWeather, © 2014

Note: Actual official high and low records may vary slightly from our data, if they occured in-between our weather recording intervals... More about our weather records

Advertising

Burlington weather history for previous 24 hours

 ConditionsComfort  
Time TempWeatherWind HumidityBarometerVisibility
11:00 PM
Sep 21
55 °FCool.13 mph75%29.76 "HgN/A
10:00 PM56 °FCool.15 mph73%29.72 "HgN/A
9:00 PM60 °FCool.6 mph81%29.66 "HgN/A
8:00 PM61 °FCool.8 mph77%29.63 "HgN/A
7:00 PM62 °FCool.8 mph75%29.62 "HgN/A
6:00 PM70 °FMild.7 mph52%29.58 "HgN/A
5:00 PM71 °FMild.13 mph50%29.57 "HgN/A
4:00 PM71 °FMild.9 mph54%29.56 "HgN/A
3:00 PM72 °FMild.8 mph50%29.55 "HgN/A
2:00 PM71 °FMild.8 mph53%29.54 "HgN/A
1:00 PM73 °FMild.10 mph58%29.54 "HgN/A
12:00 PM72 °FMild.13 mph61%29.55 "HgN/A
11:00 AM70 °FMild.12 mph75%29.54 "HgN/A
10:00 AM69 °FMild.13 mph76%29.54 "HgN/A
9:00 AM69 °FMild.14 mph84%29.53 "HgN/A
8:00 AM67 °FMild.14 mph86%29.57 "HgN/A
7:00 AM67 °FMild.6 mph84%29.61 "HgN/A
6:00 AM68 °FMild.8 mph85%29.65 "HgN/A
5:00 AM68 °FMild.8 mph84%29.66 "HgN/A
4:00 AM67 °FMild.3 mph80%29.68 "HgN/A
3:00 AM68 °FMild.7 mph78%29.70 "HgN/A
2:00 AM69 °FMild.9 mph73%29.72 "HgN/A
1:00 AM69 °FMild.12 mph74%29.74 "HgN/A
12:00 AM72 °FMild.14 mph70%29.73 "HgN/A
Weather by CustomWeather, © 2014

See weather overviewHow to use our weather pages